User: anonymous   Login
Location: Unspecified
(0.0000°N, 0.0000°E)
Time: 22:35:12
(UTC+00:00)
Language:

GSAT 7 - Orbit

View from above orbital plane
View from above orbital plane
View from above satellite
View from above satellite

Ground track
Ground track

The orbit data is extracted from the following two-line orbital elements,

1 39234U 13044B   15030.01290301 -.00000094  00000-0  00000+0 0  4547
2 39234 000.0480 084.8809 0010124 194.1629 288.4814 01.00271572  5221
Epoch (UTC): 30 January 2015 00:18:34
Eccentricity: 0.0010124
inclination: 0.0480°
perigee height: 35743 km
apogee height: 35829 km
right ascension of ascending node: 84.8809°
argument of perigee: 194.1629°
revolutions per day: 1.00271572
mean anomaly at epoch: 288.4814°
orbit number at epoch: 522

The dashed part of the orbit path shows where the satellite is in the earth's shadow,  

DLR